Wind_Speed
58 58 57 57 56 56 55 55 55 55 54 54 54 54 54 54 54 54 54 54 55 55 55 55 54 53 52 51 50 50 50 50 49 49 48 47 47 47 47 47 48 49
57 56 56 55 55 55 54 53 54 54 54 54 54 54 55 55 55 56 56 56 56 56 56 56 54 53 51 51 51 51 51 51 51 50 49 49 48 48 48 48 48 49
55 55 54 54 54 54 53 53 53 53 54 55 55 55 56 56 57 58 57 58 58 57 57 57 56 54 53 52 51 51 51 51 51 51 50 50 49 49 49 49 49 49
54 54 54 54 54 54 54 53 53 54 55 55 56 57 57 58 58 59 59 59 59 59 58 57 57 56 54 53 52 51 51 51 51 51 51 51 51 50 50 50 51 51
53 54 54 55 55 55 55 55 55 56 56 57 58 59 59 59 59 59 59 59 59 59 59 58 57 57 56 55 53 51 51 51 51 51 51 52 52 52 51 51 52 52
54 54 55 55 56 56 56 56 57 57 58 59 60 60 60 60 60 59 59 58 58 59 59 59 58 57 57 57 55 53 52 52 51 51 51 52 53 53 53 53 53 53
54 55 55 56 56 57 57 58 58 59 60 60 61 61 61 60 60 59 58 58 58 58 58 58 58 58 58 58 57 56 54 53 53 53 53 53 54 54 54 54 54 54
55 56 57 57 58 58 58 59 60 61 61 62 62 62 61 61 60 60 59 59 59 59 59 59 59 59 60 59 59 57 56 56 55 55 54 55 55 56 56 55 55 55
57 58 58 59 59 59 59 60 61 62 62 62 62 61 61 61 61 60 60 60 60 60 60 60 60 60 60 60 60 59 59 59 59 58 56 56 57 57 57 57 57 56
58 58 58 59 59 60 60 61 62 63 63 62 62 61 61 61 61 61 61 61 61 61 61 61 61 61 61 61 61 62 62 62 62 60 58 57 57 58 58 59 58 58
58 58 59 59 60 61 61 62 63 63 64 63 63 62 62 62 62 62 62 62 62 62 62 62 62 62 62 63 63 64 64 64 63 62 61 59 59 59 60 60 60 60
59 59 60 60 61 62 62 63 63 63 64 64 64 64 64 64 64 64 64 64 63 63 62 62 63 63 64 64 65 65 65 65 64 63 63 62 61 61 61 61 61 61
60 60 61 62 62 63 63 63 64 64 65 65 65 66 66 66 66 66 66 65 64 63 63 63 64 64 65 65 65 66 66 66 65 65 65 64 63 62 62 62 63 63
61 62 62 63 63 64 64 65 65 65 66 66 67 68 68 68 67 66 66 64 64 64 64 64 64 65 65 66 66 67 67 67 67 67 66 66 65 64 63 63 64 64
63 64 64 65 65 65 66 66 66 66 67 68 68 69 68 67 66 65 65 64 63 63 63 64 65 65 66 67 68 69 69 69 69 69 68 67 66 66 65 65 65 65
64 65 66 66 67 67 67 67 67 67 68 68 68 67 66 65 65 64 64 63 63 63 64 64 65 66 67 68 69 70 71 71 71 70 69 68 68 68 68 68 68 67
65 66 67 67 68 68 68 68 68 68 68 68 67 66 65 65 65 64 64 64 64 65 66 66 67 68 69 70 70 71 71 71 71 71 70 70 70 69 70 70 71 71
65 66 67 67 68 68 68 69 69 69 69 69 68 67 67 67 66 66 66 67 67 68 68 69 69 70 71 71 72 72 72 72 72 72 72 72 72 71 72 72 73 74
64 65 66 67 68 68 69 69 70 70 70 70 69 68 68 69 69 69 69 69 69 69 69 70 71 71 72 72 73 73 73 73 74 74 74 74 74 74 74 74 75 76
63 65 66 67 68 68 69 70 71 71 71 70 69 69 70 71 71 70 69 69 69 69 69 70 71 71 72 73 74 75 75 76 76 76 76 76 77 77 77 77 77 78
63 64 66 67 68 69 70 71 71 71 70 70 71 72 73 72 71 69 68 68 68 69 70 70 71 72 73 74 76 77 78 79 79 79 79 79 79 79 79 79 79 79
64 66 67 68 68 69 70 70 70 70 71 72 73 73 72 70 68 68 68 68 69 70 71 72 73 74 75 77 78 79 81 82 82 81 81 81 80 80 79 79 78 78
65 66 66 67 67 68 69 69 70 71 72 73 71 69 68 67 67 67 68 69 70 71 73 74 75 76 78 78 79 80 81 82 82 82 81 81 80 79 79 78 77 76
64 65 65 66 67 68 69 70 71 72 71 69 67 66 66 66 67 68 69 71 72 74 75 76 77 78 79 79 79 79 79 80 80 81 80 80 80 79 78 77 76 75
63 64 65 66 68 69 70 71 70 68 66 65 65 65 66 67 68 69 71 72 74 75 76 77 78 78 78 78 78 78 78 78 78 78 77 77 76 76 75 74 73 72
64 65 66 68 69 69 68 67 65 64 64 65 66 66 67 69 70 71 72 74 75 75 76 76 77 77 77 77 76 76 75 75 74 73 73 72 72 71 71 70 69 68
Wind_Direction
276 277 277 278 279 280 281 283 284 285 286 286 287 288 289 290 290 290 291 291 291 291 292 292 292 291 290 289 288 287 287 286 285 285 283 281 278 275 272 270 269 269
276 276 277 278 279 280 281 281 282 283 284 285 286 287 289 290 290 291 291 291 291 291 291 292 292 291 290 290 290 289 288 287 285 284 283 282 280 277 274 271 270 269
276 276 277 278 278 279 280 281 282 284 285 286 287 287 288 289 290 290 291 291 291 291 291 291 291 290 289 290 291 290 289 287 285 284 282 281 280 278 276 273 271 269
276 277 277 278 278 279 280 281 282 284 285 286 287 288 288 289 290 290 291 291 291 291 291 290 290 289 288 288 289 289 288 286 285 284 282 282 280 279 278 275 273 271
276 277 277 278 279 280 281 282 283 284 285 286 287 288 289 289 289 290 290 290 290 290 290 289 288 288 288 288 288 288 286 284 283 283 282 281 281 279 278 276 274 272
277 278 278 279 280 281 282 283 284 285 286 287 288 288 289 289 289 289 289 289 289 288 288 288 288 288 289 289 289 288 286 283 282 282 281 280 279 279 277 276 274 273
278 279 280 281 281 282 283 284 285 286 286 287 287 288 289 289 288 288 288 287 287 287 287 287 288 289 289 289 289 288 286 283 282 282 281 279 278 277 276 275 274 272
279 280 280 281 282 283 284 285 285 286 287 287 288 288 288 288 288 287 287 287 287 287 287 288 288 288 288 288 288 287 286 283 283 283 282 280 278 277 276 274 273 272
279 280 281 282 283 283 284 285 285 286 287 288 288 289 288 288 288 288 288 288 287 287 287 287 287 287 287 287 287 286 285 284 283 282 282 280 278 277 276 275 274 272
279 280 281 282 282 283 284 285 285 286 287 288 288 288 288 288 288 288 288 288 288 287 287 286 286 286 286 285 285 285 284 284 284 283 282 280 278 277 276 275 274 273
279 279 280 281 282 283 284 285 286 287 287 288 288 288 288 287 288 288 289 288 288 287 286 286 285 285 284 284 283 283 284 284 284 284 283 281 279 277 275 275 274 273
278 279 280 281 282 283 284 285 286 286 287 288 288 288 288 288 288 289 289 289 288 287 286 284 284 283 283 283 283 283 284 284 284 284 283 282 280 278 276 274 273 273
277 279 280 281 282 284 285 285 286 287 288 288 289 289 289 289 288 288 289 288 287 286 285 284 283 283 283 283 284 284 284 284 284 283 282 281 279 278 276 274 273 272
277 278 279 281 282 284 285 286 286 287 288 289 290 290 290 290 289 289 288 288 287 286 285 285 284 284 284 284 284 284 284 284 283 282 281 280 279 277 275 274 272 272
277 278 279 281 283 284 285 286 287 288 289 290 291 291 291 290 290 290 289 288 287 287 286 286 285 285 284 284 284 284 283 283 282 281 281 280 279 277 275 274 272 271
278 279 280 282 283 284 285 286 288 289 290 291 291 291 291 291 291 290 289 288 288 287 286 285 285 284 284 283 283 283 282 282 282 281 281 280 279 278 276 275 273 271
279 280 282 283 284 285 286 287 289 289 290 291 291 291 290 290 290 290 289 289 288 287 286 286 285 284 284 283 283 282 282 282 281 281 280 279 278 277 276 275 274 272
280 281 282 283 284 285 286 288 288 289 291 292 291 291 290 290 290 290 289 289 289 288 287 286 285 284 284 284 283 283 282 282 281 281 280 279 278 277 276 275 274 273
282 282 283 284 284 285 286 287 288 290 291 292 291 290 291 291 291 291 290 289 289 288 287 286 285 285 285 284 284 283 282 282 281 280 279 278 277 276 275 274 273 273
283 283 284 284 284 285 286 288 289 290 291 291 290 291 292 292 292 291 290 289 289 288 287 287 286 286 286 285 285 285 284 283 282 281 280 279 278 277 275 274 273 272
284 284 284 284 285 286 287 288 289 290 290 290 291 292 292 292 292 291 290 289 289 288 288 288 288 287 287 287 287 287 286 285 284 283 282 281 279 278 276 274 273 271
283 284 284 285 286 287 287 288 289 289 290 291 292 292 292 291 291 291 290 290 290 290 289 289 289 289 289 289 289 289 288 288 287 286 285 284 282 280 278 276 274 272
283 283 284 285 286 287 288 288 289 290 291 291 291 291 291 291 291 291 291 291 291 291 291 291 291 291 291 291 291 291 291 290 290 289 288 287 285 283 282 279 277 274
283 284 285 286 287 287 288 289 289 290 290 290 290 291 291 291 291 292 292 293 293 293 293 293 293 293 293 293 293 292 292 291 291 290 290 289 288 286 284 283 280 278
283 284 285 286 287 287 288 288 289 289 290 290 291 291 292 292 293 294 294 294 295 295 295 295 295 295 295 294 294 294 293 293 292 292 291 290 289 288 287 285 283 281
283 284 285 285 286 287 288 288 289 290 291 292 292 293 294 294 295 295 296 296 296 296 296 297 297 297 297 296 296 296 295 295 294 294 293 292 291 290 289 288 286 284
Height
10663 10662 10661 10661 10659 10658 10656 10655 10653 10651 10649 10647 10646 10644 10644 10643 10643 10642 10642 10640 10639 10637 10636 10635 10634 10632 10630 10629 10628 10626 10625 10624 10623 10623 10623 10623 10623 10623 10623 10623 10623 10624
10656 10656 10655 10655 10654 10652 10651 10650 10648 10647 10645 10643 10641 10640 10638 10637 10636 10636 10635 10634 10632 10631 10630 10628 10627 10626 10624 10623 10621 10620 10618 10617 10616 10615 10615 10615 10615 10615 10615 10615 10616 10616
10649 10649 10648 10648 10647 10646 10645 10644 10643 10641 10639 10638 10636 10635 10633 10632 10631 10629 10628 10627 10625 10624 10623 10621 10620 10619 10617 10616 10614 10613 10612 10610 10609 10608 10607 10607 10607 10607 10607 10607 10607 10608
10642 10642 10641 10641 10640 10640 10639 10638 10637 10635 10633 10632 10630 10629 10628 10627 10625 10623 10622 10620 10618 10617 10616 10615 10613 10612 10611 10609 10608 10606 10605 10604 10602 10600 10600 10599 10600 10600 10599 10599 10599 10599
10636 10635 10635 10634 10634 10633 10632 10631 10630 10628 10627 10626 10624 10623 10622 10621 10619 10618 10616 10613 10611 10610 10609 10607 10606 10605 10603 10602 10601 10600 10598 10598 10596 10594 10593 10591 10591 10592 10592 10591 10591 10591
10630 10629 10628 10627 10627 10626 10625 10624 10623 10622 10620 10619 10618 10616 10616 10614 10613 10611 10609 10607 10605 10603 10602 10600 10599 10597 10596 10594 10593 10592 10591 10590 10589 10588 10587 10585 10584 10584 10584 10583 10583 10583
10624 10623 10621 10620 10620 10619 10618 10617 10616 10614 10613 10612 10611 10610 10609 10608 10606 10604 10603 10601 10599 10597 10595 10593 10592 10590 10588 10587 10585 10585 10583 10582 10581 10580 10579 10578 10576 10576 10575 10575 10575 10575
10617 10615 10614 10614 10613 10612 10611 10610 10608 10607 10606 10605 10604 10603 10602 10600 10599 10597 10596 10594 10592 10590 10588 10587 10585 10583 10581 10579 10578 10577 10576 10575 10573 10572 10571 10569 10568 10567 10566 10566 10566 10566
10610 10609 10608 10607 10606 10605 10604 10603 10601 10600 10599 10598 10597 10595 10594 10592 10591 10589 10588 10586 10584 10582 10581 10579 10577 10576 10574 10572 10570 10568 10567 10566 10565 10564 10563 10561 10560 10559 10557 10557 10557 10557
10603 10602 10601 10600 10599 10598 10597 10596 10594 10593 10592 10591 10590 10588 10586 10585 10583 10581 10580 10578 10576 10574 10572 10571 10569 10568 10566 10564 10562 10560 10558 10557 10556 10555 10554 10553 10552 10550 10549 10548 10547 10547
10597 10596 10594 10593 10592 10591 10590 10589 10587 10586 10584 10583 10582 10580 10579 10577 10575 10573 10571 10569 10567 10565 10564 10562 10560 10559 10557 10555 10553 10551 10550 10548 10546 10545 10544 10543 10542 10541 10540 10539 10538 10537
10590 10589 10588 10587 10585 10584 10583 10581 10580 10578 10577 10575 10574 10572 10571 10569 10567 10565 10563 10561 10559 10557 10555 10553 10551 10549 10548 10546 10544 10542 10541 10539 10537 10536 10534 10533 10532 10531 10530 10529 10529 10528
10584 10583 10581 10580 10578 10577 10576 10574 10572 10571 10569 10568 10566 10564 10562 10560 10558 10556 10554 10552 10550 10548 10546 10544 10542 10540 10538 10536 10535 10533 10531 10529 10528 10526 10525 10523 10522 10521 10520 10519 10518 10518
10577 10576 10575 10573 10572 10570 10569 10567 10565 10563 10562 10560 10558 10555 10553 10551 10549 10547 10545 10543 10541 10539 10537 10535 10533 10531 10529 10527 10525 10523 10521 10519 10518 10516 10514 10513 10511 10510 10509 10509 10508 10507
10571 10569 10568 10567 10565 10563 10562 10560 10558 10556 10554 10552 10549 10547 10545 10542 10540 10538 10536 10534 10532 10530 10529 10527 10524 10522 10520 10518 10515 10513 10511 10509 10507 10506 10504 10502 10500 10499 10498 10497 10497 10496
10564 10563 10561 10560 10558 10556 10555 10553 10551 10549 10546 10544 10541 10539 10537 10534 10532 10530 10528 10526 10523 10521 10519 10517 10515 10513 10510 10508 10506 10503 10501 10498 10496 10495 10493 10492 10490 10488 10486 10485 10484 10484
10557 10556 10554 10553 10551 10549 10547 10545 10543 10541 10538 10536 10533 10531 10529 10527 10524 10522 10520 10517 10515 10512 10510 10507 10505 10502 10500 10497 10495 10493 10490 10488 10486 10484 10482 10481 10479 10477 10475 10473 10471 10470
10550 10549 10547 10545 10544 10542 10540 10537 10535 10532 10530 10527 10525 10523 10520 10518 10516 10513 10511 10508 10506 10503 10500 10497 10495 10492 10489 10486 10484 10482 10479 10477 10474 10472 10470 10469 10467 10465 10464 10462 10459 10457
10543 10541 10540 10538 10536 10534 10532 10529 10526 10524 10521 10519 10516 10514 10512 10509 10507 10504 10502 10499 10496 10493 10490 10487 10484 10481 10478 10475 10472 10470 10467 10465 10462 10460 10458 10457 10455 10453 10452 10450 10448 10446
10536 10534 10532 10530 10528 10526 10523 10521 10518 10515 10513 10510 10508 10505 10503 10500 10497 10495 10492 10489 10486 10483 10479 10476 10473 10470 10467 10464 10461 10457 10454 10452 10449 10447 10445 10443 10441 10440 10438 10437 10435 10433
10529 10526 10524 10522 10520 10518 10515 10512 10509 10507 10504 10502 10499 10496 10494 10491 10488 10485 10482 10479 10476 10472 10469 10466 10463 10460 10456 10453 10449 10444 10440 10437 10435 10433 10430 10428 10426 10424 10423 10422 10421 10419
10521 10519 10517 10514 10512 10510 10507 10504 10501 10499 10496 10493 10490 10487 10484 10481 10478 10475 10472 10469 10466 10462 10459 10456 10452 10449 10445 10441 10437 10432 10427 10423 10420 10417 10414 10411 10409 10407 10405 10405 10405 10404
10514 10511 10509 10507 10505 10502 10499 10497 10494 10491 10488 10485 10482 10479 10476 10473 10469 10466 10463 10459 10456 10452 10449 10445 10441 10437 10434 10429 10425 10421 10415 10410 10405 10402 10398 10395 10392 10390 10388 10386 10386 10387
10507 10505 10502 10500 10497 10495 10492 10489 10486 10483 10480 10477 10474 10471 10468 10465 10461 10458 10454 10450 10446 10442 10438 10434 10430 10426 10422 10417 10413 10409 10404 10399 10393 10389 10384 10380 10377 10374 10371 10369 10368 10368
10500 10497 10495 10493 10490 10487 10484 10481 10478 10475 10472 10469 10466 10463 10459 10456 10453 10449 10445 10441 10436 10432 10427 10423 10419 10415 10410 10406 10401 10397 10392 10387 10382 10377 10372 10368 10363 10359 10356 10353 10352 10351
10493 10490 10488 10485 10482 10479 10476 10473 10470 10467 10464 10461 10458 10454 10451 10447 10444 10440 10436 10431 10427 10422 10417 10412 10407 10403 10398 10393 10389 10385 10380 10375 10370 10365 10360 10356 10351 10347 10343 10340 10337 10336